Weather History for Whiteville, NC

Change the Weather History Date:

Tuesday, February 18, 2014

  Actual Average (KLBT) Record (KLBT)
Temperature  
Mean Temperature 51 °F 47 °F  
Max Temperature 66 °F 59 °F 77 °F (2011)
Min Temperature 36 °F 36 °F 21 °F (2013)
Degree Days  
Heating Degree Days 14 18  
Month to date heating degree days 348  
Since 1 July heating degree days 2067  
Cooling Degree Days 0 0  
Month to date cooling degree days 0  
Year to date cooling degree days 1  
Growing Degree Days 1 (Base 50)    
Moisture  
Dew Point 40 °F    
Average Humidity 69    
Maximum Humidity 92    
Minimum Humidity 39    
Precipitation  
Precipitation 0.00 in 0.12 in 2.28 in (2008)
Month to date precipitation 1.76  
Year to date precipitation 4.73  
Sea Level Pressure  
Sea Level Pressure 30.17 in    
Wind  
Wind Speed 2 mph (WNW)    
Max Wind Speed 7 mph    
Max Gust Speed -    
Visibility 10 miles    
Events Rain    
T = Trace of Precipitation, MM = Missing Value Source: NWS Daily Summary

Daily Weather History Graph

Daily Weather History Graph

Search for Another Location

Airport:

Trip Planner

Search our weather history database for the weather conditions in past years. The results will help you decide how hot, cold, wet, or windy it might be!

Date:

Astronomy

Feb. 18, 2014 Rise Set
Actual Time 6:56 AM EST 6:01 PM EST
Civil Twilight 6:31 AM EST 6:26 PM EST
Nautical Twilight 6:01 AM EST 6:56 PM EST
Astronomical Twilight 5:32 AM EST 7:25 PM EST
Moon 9:40 PM EST (2/18) 8:38 AM EST (2/18)
Length of Visible Light 11h 55m
Length of Day
11h 04m
Waning Gibbous, 87% of the Moon is Illuminated
Feb 18
Waning Gibbous
Feb 22
Last Quarter
Mar 1
New
Mar 8
First Quarter
Mar 16
Full

Hourly Weather History & Observations

Time (EST) Temp. Windchill Dew Point Humidity Pressure Visibility Wind Dir Wind Speed Gust Speed Precip Events Conditions
12:15 AM 40.1 °F 36.1 °F 33.1 °F 76% 30.18 in 10.0 mi NE 5.8 mph - N/A   Clear
12:35 AM 40.1 °F 35.3 °F 32.5 °F 74% 30.18 in 10.0 mi East 6.9 mph - N/A   Clear
12:55 AM 39.7 °F 36.5 °F 32.5 °F 75% 30.17 in 10.0 mi East 4.6 mph - N/A   Scattered Clouds
1:15 AM 39.4 °F 35.2 °F 32.9 °F 78% 30.16 in 10.0 mi East 5.8 mph - N/A   Scattered Clouds
1:35 AM 39.9 °F 36.7 °F 33.3 °F 77% 30.16 in 10.0 mi ENE 4.6 mph - N/A   Mostly Cloudy
1:55 AM 40.1 °F 36.9 °F 33.4 °F 77% 30.16 in 10.0 mi East 4.6 mph - N/A   Overcast
2:15 AM 40.3 °F - 34.0 °F 78% 30.16 in 10.0 mi Calm Calm - N/A   Overcast
2:35 AM 40.3 °F - 34.0 °F 78% 30.16 in 10.0 mi Calm Calm - N/A   Overcast
2:55 AM 40.6 °F - 34.3 °F 78% 30.17 in 10.0 mi Calm Calm - N/A   Overcast
3:15 AM 41.0 °F - 34.9 °F 79% 30.16 in 10.0 mi Calm Calm - N/A   Overcast
3:35 AM 41.2 °F - 35.6 °F 81% 30.15 in 10.0 mi Calm Calm - N/A Rain Light Rain
3:55 AM 40.6 °F - 35.8 °F 83% 30.15 in 10.0 mi Calm Calm - N/A   Overcast
4:15 AM 41.0 °F - 35.6 °F 81% 30.15 in 10.0 mi Calm Calm - N/A   Overcast
4:35 AM 40.5 °F - 35.6 °F 83% 30.14 in 10.0 mi Calm Calm - N/A   Mostly Cloudy
4:55 AM 40.3 °F - 36.1 °F 85% 30.14 in 10.0 mi Calm Calm - N/A   Mostly Cloudy
5:15 AM 39.4 °F - 35.8 °F 87% 30.13 in 10.0 mi Calm Calm - N/A   Scattered Clouds
5:35 AM 39.0 °F - 35.6 °F 88% 30.13 in 10.0 mi Calm Calm - N/A   Clear
5:55 AM 38.3 °F - 35.6 °F 90% 30.14 in 10.0 mi Calm Calm - N/A   Clear
6:15 AM 37.9 °F - 35.2 °F 90% 30.14 in 10.0 mi Calm Calm - N/A   Scattered Clouds
6:35 AM 37.8 °F - 35.2 °F 91% 30.15 in 10.0 mi Calm Calm - N/A   Mostly Cloudy
6:55 AM 37.4 °F - 35.1 °F 91% 30.16 in 7.0 mi Calm Calm - N/A   Scattered Clouds
7:15 AM 36.9 °F - 34.7 °F 92% 30.16 in 7.0 mi Calm Calm - N/A   Clear
7:35 AM 37.6 °F - 35.2 °F 91% 30.17 in 7.0 mi Calm Calm - N/A   Clear
7:55 AM 39.2 °F - 36.0 °F 88% 30.19 in 10.0 mi Calm Calm - N/A   Clear
8:15 AM 41.7 °F - 36.5 °F 82% 30.20 in 10.0 mi Calm Calm - N/A   Clear
8:35 AM 43.3 °F 41.7 °F 36.5 °F 77% 30.21 in 10.0 mi NW 3.5 mph - N/A   Clear
8:55 AM 44.6 °F - 37.0 °F 75% 30.23 in 10.0 mi Calm Calm - N/A   Clear
9:15 AM 46.6 °F - 38.3 °F 73% 30.23 in 10.0 mi Calm Calm - N/A   Clear
9:35 AM 48.6 °F - 39.9 °F 72% 30.24 in 10.0 mi NW 3.5 mph - N/A   Clear
9:55 AM 50.9 °F - 41.2 °F 69% 30.24 in 10.0 mi West 4.6 mph - N/A   Clear
10:15 AM 52.3 °F - 42.6 °F 69% 30.24 in 10.0 mi WNW 5.8 mph - N/A   Clear
10:35 AM 54.1 °F - 43.0 °F 66% 30.24 in 10.0 mi West 5.8 mph - N/A   Clear
10:55 AM 55.2 °F - 43.3 °F 64% 30.25 in 10.0 mi Calm Calm - N/A   Clear
11:15 AM 58.1 °F - 43.5 °F 58% 30.24 in 10.0 mi West 4.6 mph - N/A   Clear
11:35 AM 57.9 °F - 43.3 °F 58% 30.23 in 10.0 mi North 4.6 mph - N/A   Clear
11:55 AM 58.8 °F - 42.4 °F 55% - - North - - N/A   Unknown
12:15 PM 60.6 °F - 42.1 °F 50% 30.21 in 10.0 mi Calm Calm - N/A   Unknown
12:35 PM 60.4 °F - 41.5 °F 50% 30.21 in 10.0 mi NNW 4.6 mph - N/A   Clear
12:55 PM 61.5 °F - 42.1 °F 49% 30.20 in 10.0 mi North 3.5 mph - N/A   Clear
1:15 PM 62.6 °F - 42.3 °F 47% 30.19 in 10.0 mi Calm Calm - N/A   Clear
1:35 PM 63.1 °F - 42.1 °F 46% 30.18 in 10.0 mi Calm Calm - N/A   Clear
1:55 PM 64.6 °F - 42.4 °F 44% 30.17 in 10.0 mi WNW 3.5 mph - N/A   Clear
2:15 PM 65.5 °F - 42.8 °F 44% 30.17 in 10.0 mi Calm Calm - N/A   Clear
2:35 PM 66.2 °F - 42.6 °F 42% 30.16 in 10.0 mi West 5.8 mph - N/A   Clear
2:55 PM 66.0 °F - 41.4 °F 41% 30.16 in 10.0 mi WSW 5.8 mph - N/A   Clear
3:15 PM 66.0 °F - 41.0 °F 40% 30.16 in 10.0 mi West 5.8 mph - N/A   Clear
3:35 PM 66.6 °F - 40.6 °F 39% 30.16 in 10.0 mi West 3.5 mph - N/A   Clear
3:55 PM 66.0 °F - 40.5 °F 39% 30.16 in 10.0 mi WSW 4.6 mph - N/A   Clear
4:15 PM 66.2 °F - 41.2 °F 40% 30.15 in 10.0 mi West 3.5 mph - N/A   Clear
4:35 PM 65.8 °F - 41.7 °F 41% 30.15 in 10.0 mi Calm Calm - N/A   Clear
4:55 PM 65.8 °F - 41.7 °F 41% 30.15 in 10.0 mi West 4.6 mph - N/A   Clear
5:15 PM 65.3 °F - 41.0 °F 41% 30.15 in 10.0 mi Calm Calm - N/A   Clear
5:35 PM 63.5 °F - 42.1 °F 46% 30.15 in 10.0 mi Calm Calm - N/A   Clear
5:55 PM 61.3 °F - 42.1 °F 49% 30.15 in 10.0 mi Calm Calm - N/A   Clear
6:15 PM 58.8 °F - 42.8 °F 55% 30.15 in 10.0 mi Calm Calm - N/A   Clear
6:35 PM 57.2 °F - 42.4 °F 58% 30.16 in 10.0 mi Calm Calm - N/A   Clear
6:55 PM 54.7 °F - 43.7 °F 66% 30.16 in 10.0 mi Calm Calm - N/A   Clear
7:15 PM 52.2 °F - 43.7 °F 73% 30.16 in 10.0 mi Calm Calm - N/A   Clear
7:35 PM 51.3 °F - 43.2 °F 74% 30.16 in 10.0 mi Calm Calm - N/A   Clear
7:55 PM 49.8 °F - 42.3 °F 75% 30.16 in 10.0 mi Calm Calm - N/A   Clear
8:15 PM 48.7 °F - 42.4 °F 79% 30.17 in 10.0 mi South 4.6 mph - N/A   Clear
8:35 PM 49.6 °F - 42.6 °F 77% 30.17 in 10.0 mi South 3.5 mph - N/A   Clear
8:55 PM 51.8 °F - 43.5 °F 73% 30.17 in 10.0 mi Calm Calm - N/A   Clear
9:15 PM 50.7 °F - 43.3 °F 76% 30.17 in 10.0 mi Calm Calm - N/A   Clear
9:35 PM 49.5 °F - 43.5 °F 80% 30.16 in 10.0 mi Calm Calm - N/A   Clear
9:55 PM 46.9 °F - 43.2 °F 87% 30.16 in 10.0 mi Calm Calm - N/A   Clear
10:15 PM 46.2 °F - 42.6 °F 87% 30.16 in 10.0 mi Calm Calm - N/A   Clear
10:35 PM 47.1 °F - 43.9 °F 88% 30.15 in 10.0 mi Calm Calm - N/A   Clear
10:55 PM 48.4 °F - 44.8 °F 87% 30.15 in 10.0 mi Calm Calm - N/A   Clear
11:15 PM 48.4 °F - 45.0 °F 88% 30.14 in 10.0 mi Calm Calm - N/A   Clear
11:35 PM 45.9 °F - 42.1 °F 87% 30.13 in 10.0 mi Calm Calm - N/A   Clear
11:55 PM 47.3 °F - 44.4 °F 90% 30.13 in 10.0 mi Calm Calm - N/A   Clear